{"data":{"norad_id":69578,"intl_designator":"2026-137G","name":"HULIANWANG DIGUI-175","alt_names":[],"object_type":"PAYLOAD","status":"ACTIVE","operator":null,"country":"PRC","launch_date":"2026-06-17","launch_site_code":"WSC","launch_vehicle":null,"mission":null,"orbit_class":"UNKNOWN","rcs_meters":null,"size_class":null,"mass_kg":null,"dimensions":null,"purposes":[],"wikipedia_slug":null,"has_3d_model":false,"image_url":null,"decayed_at":null,"tle_current":{"epoch":"2026-09-19T05:43:57.205920Z","epoch_age_seconds":137835,"freshness":"FRESH","line1":"1 69578U 26137G   26262.23885655 -.00000079  00000+0  97073-4 0  9990","line2":"2 69578  49.9961 258.3491 0000258 355.2521   4.8348 13.29327627 12850","mean_motion":13.29327627,"eccentricity":2.58e-5,"inclination_deg":49.9961,"raan_deg":258.3491,"arg_perigee_deg":355.2521,"mean_anomaly_deg":4.8348,"bstar":9.7073e-5,"rev_number":1285,"period_min":108.32543992558,"perigee_km":1149.1062219391,"apogee_km":1149.4946377105,"semimajor_km":7527.4374298248,"source":"CELESTRAK","updated_at":"2026-09-20T09:00:24.994537Z"}}}